• în Republica Moldova
  • Lista ţărilor
  • Pe 7 zile
  • Temperatura apei
  • Hartă satelitară
  • Meteo pe hartă
  • Widget-uri
  • user-avatar
    Intrare

    Meteo pe oră la Townsville

    Astăzi, 16 August, Joi

    Timp Temperatura Precipitaţii Vânt Presiune Umiditate
    00:00 +18°C° 0 mm 4 m/s 756 mmHg 94%
    01:00 +18°C° 0 mm 3 m/s 756 mmHg 95%
    02:00 +18°C° 0 mm 3 m/s 756 mmHg 95%
    03:00 +17°C° 0 mm 3 m/s 755 mmHg 95%
    04:00 +17°C° 0 mm 3 m/s 755 mmHg 96%
    05:00 +17°C° 0 mm 2 m/s 755 mmHg 97%
    06:00 +17°C° 0 mm 2 m/s 755 mmHg 97%
    07:00 +16°C° 0 mm 2 m/s 756 mmHg 98%
    08:00 +19°C° 0 mm 2 m/s 756 mmHg 82%
    09:00 +24°C° 0 mm 2 m/s 756 mmHg 66%
    10:00 +27°C° 0 mm 2 m/s 756 mmHg 46%
    11:00 +29°C° 0 mm 3 m/s 755 mmHg 41%
    12:00 +30°C° 0 mm 3 m/s 755 mmHg 35%
    13:00 +31°C° 0 mm 3 m/s 754 mmHg 30%
    14:00 +30°C° 0 mm 3 m/s 754 mmHg 35%
    15:00 +29°C° 0 mm 4 m/s 753 mmHg 39%
    16:00 +28°C° 0 mm 4 m/s 752 mmHg 42%
    17:00 +26°C° 0 mm 3 m/s 753 mmHg 57%
    18:00 +22°C° 0 mm 3 m/s 753 mmHg 73%
    19:00 +20°C° 0 mm 3 m/s 753 mmHg 88%
    20:00 +19°C° 0 mm 2 m/s 754 mmHg 89%
    21:00 +19°C° 0 mm 2 m/s 754 mmHg 90%
    22:00 +19°C° 0 mm 2 m/s 754 mmHg 90%
    23:00 +18°C° 0 mm 2 m/s 754 mmHg 92%

    Mâine, 17 August, Vineri

    Timp Temperatura Precipitaţii Vânt Presiune Umiditate
    00:00 +19°C° 0 mm 1 m/s 754 mmHg 93%
    01:00 +19°C° 0 mm 1 m/s 754 mmHg 94%
    02:00 +19°C° 0 mm 1 m/s 754 mmHg 94%
    03:00 +18°C° 0 mm 1 m/s 754 mmHg 94%
    04:00 +18°C° 0 mm 1 m/s 754 mmHg 94%
    05:00 +17°C° 0 mm 2 m/s 754 mmHg 94%
    06:00 +17°C° 0 mm 2 m/s 755 mmHg 94%
    07:00 +17°C° 0 mm 2 m/s 755 mmHg 94%
    08:00 +22°C° 0 mm 1 m/s 755 mmHg 77%
    09:00 +26°C° 0 mm 1 m/s 755 mmHg 60%
    10:00 +29°C° 0 mm 1 m/s 755 mmHg 42%
    11:00 +30°C° 0 mm 1 m/s 755 mmHg 37%
    12:00 +31°C° 0 mm 2 m/s 754 mmHg 32%
    13:00 +32°C° 0 mm 2 m/s 753 mmHg 27%
    14:00 +31°C° 0 mm 3 m/s 753 mmHg 30%
    15:00 +30°C° 0 mm 3 m/s 753 mmHg 33%
    16:00 +30°C° 0 mm 4 m/s 752 mmHg 37%
    17:00 +27°C° 0 mm 3 m/s 752 mmHg 52%
    18:00 +24°C° 0 mm 3 m/s 753 mmHg 67%
    19:00 +20°C° 0 mm 2 m/s 753 mmHg 83%
    20:00 +20°C° 0 mm 2 m/s 754 mmHg 85%
    21:00 +19°C° 0 mm 2 m/s 754 mmHg 88%
    22:00 +19°C° 0 mm 2 m/s 755 mmHg 90%
    23:00 +19°C° 0 mm 2 m/s 755 mmHg 92%

    Poimâine, 18 August, Sâmbătă

    Timp Temperatura Precipitaţii Vânt Presiune Umiditate
    00:00 +18°C° 0 mm 2 m/s 755 mmHg 93%
    01:00 +18°C° 0 mm 2 m/s 755 mmHg 94%
    02:00 +18°C° 0 mm 2 m/s 755 mmHg 95%
    03:00 +19°C° 0 mm 1 m/s 755 mmHg 95%
    04:00 +19°C° 0 mm 1 m/s 755 mmHg 96%
    05:00 +19°C° 0 mm 1 m/s 755 mmHg 96%
    06:00 +18°C° 0 mm 2 m/s 755 mmHg 96%
    07:00 +18°C° 0 mm 2 m/s 756 mmHg 96%
    08:00 +21°C° 0 mm 2 m/s 756 mmHg 79%
    09:00 +26°C° 0 mm 1 m/s 756 mmHg 61%
    10:00 +29°C° 0 mm 1 m/s 757 mmHg 44%
    11:00 +30°C° 0 mm 2 m/s 756 mmHg 38%
    12:00 +31°C° 0 mm 2 m/s 755 mmHg 32%
    13:00 +33°C° 0 mm 3 m/s 755 mmHg 25%
    14:00 +33°C° 0 mm 3 m/s 754 mmHg 27%
    15:00 +31°C° 0 mm 3 m/s 754 mmHg 28%
    16:00 +31°C° 0 mm 3 m/s 753 mmHg 30%
    17:00 +28°C° 0 mm 3 m/s 754 mmHg 43%
    18:00 +25°C° 0 mm 2 m/s 754 mmHg 56%
    19:00 +21°C° 0 mm 2 m/s 755 mmHg 70%
    20:00 +21°C° 0 mm 1 m/s 755 mmHg 74%
    21:00 +21°C° 0 mm 1 m/s 756 mmHg 78%
    22:00 +20°C° 0 mm 1 m/s 756 mmHg 82%
    23:00 +20°C° 0 mm 1 m/s 756 mmHg 84%

    19 August, Duminică

    Timp Temperatura Precipitaţii Vânt Presiune Umiditate
    00:00 +19°C° 0 mm 1 m/s 756 mmHg 85%
    01:00 +19°C° 0 mm 1 m/s 756 mmHg 87%
    02:00 +18°C° 0 mm 1 m/s 756 mmHg 86%
    03:00 +17°C° 0 mm 2 m/s 755 mmHg 84%
    04:00 +17°C° 0 mm 2 m/s 755 mmHg 82%
    05:00 +17°C° 0 mm 3 m/s 756 mmHg 80%
    06:00 +17°C° 0 mm 3 m/s 756 mmHg 78%
    07:00 +17°C° 0 mm 4 m/s 757 mmHg 76%
    08:00 +20°C° 0 mm 4 m/s 757 mmHg 58%
    09:00 +25°C° 0 mm 5 m/s 758 mmHg 39%
    10:00 +28°C° 0 mm 5 m/s 758 mmHg 21%
    11:00 +29°C° 0 mm 5 m/s 757 mmHg 19%
    12:00 +30°C° 0 mm 5 m/s 756 mmHg 17%
    13:00 +32°C° 0 mm 4 m/s 756 mmHg 16%
    14:00 +32°C° 0 mm 4 m/s 755 mmHg 16%
    15:00 +32°C° 0 mm 5 m/s 755 mmHg 16%
    16:00 +32°C° 0 mm 5 m/s 754 mmHg 16%
    17:00 +28°C° 0 mm 4 m/s 755 mmHg 21%
    18:00 +26°C° 0 mm 3 m/s 756 mmHg 26%
    19:00 +22°C° 0 mm 3 m/s 756 mmHg 31%
    20:00 +21°C° 0 mm 3 m/s 757 mmHg 30%
    21:00 +20°C° 0 mm 3 m/s 757 mmHg 29%
    22:00 +19°C° 0 mm 3 m/s 758 mmHg 29%
    23:00 +18°C° 0 mm 4 m/s 758 mmHg 26%

    20 August, Luni

    Timp Temperatura Precipitaţii Vânt Presiune Umiditate
    00:00 +17°C° 0 mm 5 m/s 758 mmHg 24%
    01:00 +16°C° 0 mm 6 m/s 758 mmHg 21%
    02:00 +15°C° 0 mm 6 m/s 758 mmHg 22%
    03:00 +14°C° 0 mm 7 m/s 758 mmHg 24%
    04:00 +12°C° 0 mm 7 m/s 757 mmHg 25%
    05:00 +12°C° 0 mm 7 m/s 758 mmHg 27%
    06:00 +11°C° 0 mm 7 m/s 759 mmHg 28%
    07:00 +11°C° 0 mm 7 m/s 759 mmHg 29%
    08:00 +14°C° 0 mm 7 m/s 759 mmHg 25%
    09:00 +17°C° 0 mm 7 m/s 759 mmHg 21%
    10:00 +20°C° 0 mm 6 m/s 760 mmHg 18%
    11:00 +22°C° 0 mm 6 m/s 759 mmHg 15%
    12:00 +25°C° 0 mm 5 m/s 758 mmHg 12%
    13:00 +26°C° 0 mm 4 m/s 757 mmHg 10%
    14:00 +27°C° 0 mm 4 m/s 757 mmHg 9%
    15:00 +27°C° 0 mm 4 m/s 756 mmHg 9%
    16:00 +27°C° 0 mm 4 m/s 756 mmHg 9%
    17:00 +23°C° 0 mm 4 m/s 756 mmHg 16%
    18:00 +20°C° 0 mm 3 m/s 756 mmHg 24%
    19:00 +17°C° 0 mm 3 m/s 757 mmHg 32%
    20:00 +16°C° 0 mm 2 m/s 757 mmHg 38%
    21:00 +15°C° 0 mm 2 m/s 758 mmHg 45%
    22:00 +14°C° 0 mm 2 m/s 758 mmHg 52%
    23:00 +13°C° 0 mm 2 m/s 758 mmHg 55%

    21 August, Marţi

    Timp Temperatura Precipitaţii Vânt Presiune Umiditate
    00:00 +13°C° 0 mm 2 m/s 757 mmHg 58%
    01:00 +12°C° 0 mm 3 m/s 757 mmHg 61%
    02:00 +11°C° 0 mm 3 m/s 757 mmHg 60%
    03:00 +11°C° 0 mm 3 m/s 757 mmHg 58%
    04:00 +10°C° 0 mm 3 m/s 756 mmHg 57%
    05:00 +10°C° 0 mm 3 m/s 757 mmHg 50%
    06:00 +10°C° 0 mm 3 m/s 757 mmHg 42%
    07:00 +10°C° 0 mm 3 m/s 758 mmHg 35%
    08:00 +14°C° 0 mm 4 m/s 758 mmHg 29%
    09:00 +18°C° 0 mm 4 m/s 758 mmHg 23%
    10:00 +21°C° 0 mm 4 m/s 758 mmHg 16%
    11:00 +23°C° 0 mm 4 m/s 757 mmHg 16%
    12:00 +25°C° 0 mm 4 m/s 756 mmHg 15%
    13:00 +27°C° 0 mm 4 m/s 755 mmHg 14%
    14:00 +26°C° 0 mm 4 m/s 755 mmHg 19%
    15:00 +26°C° 0 mm 4 m/s 755 mmHg 24%
    16:00 +25°C° 0 mm 4 m/s 754 mmHg 29%
    17:00 +22°C° 0 mm 4 m/s 755 mmHg 43%
    18:00 +19°C° 0 mm 3 m/s 755 mmHg 57%
    19:00 +17°C° 0 mm 3 m/s 755 mmHg 71%
    20:00 +16°C° 0 mm 2 m/s 756 mmHg 74%
    21:00 +16°C° 0 mm 2 m/s 756 mmHg 77%
    22:00 +16°C° 0 mm 2 m/s 756 mmHg 80%
    23:00 +15°C° 0 mm 2 m/s 756 mmHg 81%
    Arată mai mult